Regional Weather Roundup
Issued by NWS Jackson, KY

Home | Current Version | Previous Version | Text Only | Print | Product List | Glossary Off
Versions: 1 2 3 4 5 6 7 8 9 10 11 12 13 14 15 16 17 18 19 20 21 22 23 24 25 26 27 28 29 30 31 32 33 34 35 36 37 38 39 40 41 42 43 44 45 46 47 48 49 50

000
ASUS43 KJKL 020811
RWRJKL

EAST KENTUCKY HOURLY WEATHER ROUNDUP
NATIONAL WEATHER SERVICE JACKSON KY
400 AM EDT THU OCT 02 2014

NOTE: "FAIR" INDICATES FEW OR NO CLOUDS BELOW 12,000 FEET WITH
NO SIGNIFICANT WEATHER AND/OR OBSTRUCTIONS TO VISIBILITY.

* THESE REPORTS ARE NOT UNDER NWS QUALITY CONTROL AND MAY NOT
  REPORT WEATHER SUCH AS PRECIPITATION AND FOG.

KYZ079-080-083-085-087-088-110-112-115-119-120-020900
...EASTERN KENTUCKY...

CITY           SKY/WX    TMP DP  RH WIND       PRES   REMARKS
JACKSON        CLEAR     63  57  81 SE6       30.04F
LONDON         CLEAR     57  54  89 CALM      30.05R FOG
SOMERSET*      PTCLDY    55  55 100 CALM      30.04S
MONTICELLO*    CLEAR     56  55  96 CALM      30.04S
MIDDLESBORO*   CLOUDY    53  53 100 CALM      30.08S FOG
HARLAN APT*    CLOUDY    55  55 100 E5        30.08S VSB 3/4
HAZARD APT*    SUNNY     57  57 100 CALM      30.05S FOG
BLACK MTN*       N/A     57  50  77 S2          N/A
PIKEVILLE APT* CLEAR     61  57  88 S6        30.06S
BIG SANDY*     SUNNY     59  59  99 SE3       30.05S FOG
MOREHEAD APT*  MOSUNNY   61  59  94 S5        30.05R
$$

KYZ035-036-041-042-044-050-067-078-099-020900
...CENTRAL KENTUCKY...

CITY           SKY/WX    TMP DP  RH WIND       PRES   REMARKS
MT STERLING*   CLEAR     57  57 100 S3        30.04R
FLEMING/MASON* FOG       57  55  94 E5        30.03S VSB 1
DANVILLE*      PTCLDY    59  55  88 S5        30.03S
RICHMOND*      CLEAR     61  54  77 SE5       30.02S
LEXINGTON      PTCLDY    64  58  80 SE7       30.02R
FRANKFORT      PTCLDY    61  58  90 SE5       29.99S
$$

KYZ091>093-OHZ055-061-077-WVZ005-015-034-035-042-020900
...SOUTHERN OHIO/WEST VIRGINIA...

CITY           SKY/WX    TMP DP  RH WIND       PRES   REMARKS
COVINGTON      CLEAR     61  53  75 E5        30.00F
COLUMBUS       CLEAR     50  48  93 CALM      30.03F FOG
DAYTON         MOCLDY    57  50  77 SE5       30.03S
WILMINGTON     PTCLDY    53  45  74 E6        30.03S
HUNTINGTON     FOG       54  54 100 E5        30.03S VSB 1/4
CHARLESTON     FOG       56  55  97 CALM      30.05S VSB 1/4
PINEVILLE*     CLOUDY    54  54 100 MISG      30.14S FOG
BECKLEY        PTCLDY    53  50  89 CALM      30.11S FOG
BLUEFIELD      CLEAR     59  51  75 CALM      30.13S
$$

VAZ002-007-008-TNZ017-027-036-066-071-020900
...SOUTHWEST VIRGINIA/EAST TENNESSEE...

CITY           SKY/WX    TMP DP  RH WIND       PRES   REMARKS
WISE*          CLEAR     59  48  67 CALM      30.12S
JONESVILLE*    SUNNY     50  50 100 CALM      30.09F FOG
ABINGDON*      CLEAR     57  55  94 E7        30.10S
BRISTOL        CLEAR     51  49  92 CALM      30.08S FOG
KNOXVILLE      CLEAR     59  56  89 CALM      30.03S
OAK RIDGE      CLEAR     57  55  93 CALM      30.07R
CROSSVILLE     CLEAR     59  54  83 CALM      30.07S
NASHVILLE      CLEAR     64  58  80 S5        29.98S
$$

...KEY TO REMARKS...
VSB - VISIBILITY IN MILES
WCI - WIND CHILL INDEX
HX  - HEAT INDEX

$$


USA.gov is the U.S. government's official web portal to all federal, state and local government web resources and services.